Weather in Dieppe

France     49°55′35″N   1°05′08″E
temp.,
°C
wind,
m/s
gust,
m/s
humid.,
%
clouds,
%
prec.,
mm/h
press.,
hPa
HPBL,
m
18 may, tue
tue1823:00+11wsw11138530 0.1 1012701
02:00+11wsw10128712 1.1 1012629
05:00+11wsw798412 1.1 1013597
08:00+11w78825 1.8 1014648
11:00+11w788492 0.2 1015683
14:00+11w89825 0.3 1016654
17:00+12w710770 0.0 1016622
20:00+12w610795 0.0 1016589
19 may, wed
wed1923:00+11wsw597996 0.0 1017511
02:00+10ssw6885100 0.0 1017260
05:00+10ssw698599 0.4 1016339
08:00+11w10127966 1.1 10161055
11:00+11wnw91181100 0.8 1017997
14:00+11wnw9118235 1.6 1019853
17:00+12w710791 0.2 1020609
20:00+12w1013804 0.8 1020601
20 may, thu
thu2023:00+12w911820 0.6 1022548
02:00+11w788153 1.0 1022489
05:00+11wsw568092 0.0 1023416
08:00+10sw6789100 0.0 1023370
11:00+12sw7873100 0.0 1022723
14:00+13ssw81067100 0.0 1020498
17:00+13ssw101570100 0.0 1017665
20:00+14ssw101670100 0.0 1014405
21 may, fri
fri2123:00+13sw111763100 0.0 1013704
02:00+13sw11167585 0.0 1010970
05:00+12sw1116795 0.1 10091262
08:00+11sw1217825 0.2 10071280
11:00+12sw1318740 0.1 10071405
14:00+13wsw1419660 0.1 10061444
17:00+13wsw1420670 0.0 10051319
20:00+13wsw1421725 0.1 10031370
22 may, sat
sat2223:00+11sw15198193 0.3 10031497
02:00+11sw151886100 1.4 10031337
05:00+11wsw141887100 0.9 10031355
08:00+11wsw13158899 2.9 10051100
11:00+11wsw10128496 2.0 1007957
14:00+11wnw798552 2.6 1009730
17:00+10wnw568130 0.1 1012548
20:00+11w56795 0.1 1012491